La Push, WA

6:02 AM PST on February 11, 2016 (GMT -0800)
Quillayute

Weather History for KUIL - August, 2013

Change the Weather History Date:

Friday, August 2, 2013

  Actual Average Record
Temperature  
Mean Temperature 62 °F 60 °F  
Max Temperature 66 °F 69 °F 89 °F (1993)
Min Temperature 58 °F 51 °F 40 °F (1999)
Degree Days  
Heating Degree Days 3 5  
Month to date heating degree days 5 10  
Since 1 June heating degree days 298 498  
Since 1 July heating degree days 118 204  
Cooling Degree Days 0 0  
Month to date cooling degree days 0 0  
Year to date cooling degree days 16 11  
Since 1 June cooling degree days 13 10  
Growing Degree Days 12 (Base 50)    
Moisture  
Dew Point 55 °F    
Average Humidity 83    
Maximum Humidity 93    
Minimum Humidity 72    
Precipitation  
Precipitation 0.02 in 0.06 in 1.23 in (2001)
Month to date precipitation 0.02 0.12  
Year to date precipitation 58.83 54.35  
Sea Level Pressure  
Sea Level Pressure 30.11 in    
Wind  
Wind Speed 2 mph (SW)    
Max Wind Speed 10 mph    
Max Gust Speed 22 mph    
Visibility 5 miles    
Events Rain    
T = Trace of Precipitation, MM = Missing Value Source: NWS Daily Summary

Daily Weather History Graph

Daily Weather History Graph

Search for Another Location

Airport or City:

Trip Planner

Search our weather history database for the weather conditions in past years. The results will help you decide how hot, cold, wet, or windy it might be!

Date:

Astronomy

Aug. 02, 2013 Rise Set
Actual Time 5:56 AM PDT 8:51 PM PDT
Civil Twilight 5:20 AM PDT 9:27 PM PDT
Nautical Twilight 4:33 AM PDT 10:13 PM PDT
Astronomical Twilight 3:37 AM PDT 11:09 PM PDT
Moon 2:18 AM PDT (8/2) 5:57 PM PDT (8/2)
Length of Visible Light 16h 07m
Length of Day
14h 55m
Waning Crescent, 15% of the Moon is Illuminated
Aug 2
Waning Crescent
Aug 6
New
Aug 14
First Quarter
Aug 20
Full
Aug 28
Last Quarter

Hourly Weather History & Observations

Time (PDT) Temp. Dew Point Humidity Pressure Visibility Wind Dir Wind Speed Gust Speed Precip Events Conditions
12:53 AM 59.0 °F 54.0 °F 83% 30.09 in 9.0 mi Variable 3.5 mph - N/A   Overcast
1:25 AM 59.0 °F 53.6 °F 82% 30.09 in 9.0 mi South 3.5 mph - N/A   Overcast
1:34 AM 59.0 °F 53.6 °F 82% 30.09 in 9.0 mi Calm Calm - N/A   Overcast
1:53 AM 59.0 °F 54.0 °F 83% 30.09 in 9.0 mi Calm Calm - N/A   Overcast
2:27 AM 59.0 °F 53.6 °F 82% 30.09 in 8.0 mi Calm Calm - N/A   Overcast
2:53 AM 59.0 °F 54.0 °F 83% 30.09 in 7.0 mi Calm Calm - N/A   Overcast
3:00 AM 59.0 °F 53.6 °F 82% 30.08 in 6.0 mi South 3.5 mph - N/A   Haze
3:11 AM 59.0 °F 55.4 °F 88% 30.08 in 4.0 mi South 3.5 mph - N/A   Overcast
3:20 AM 59.0 °F 55.4 °F 88% 30.08 in 2.0 mi Calm Calm - N/A   Overcast
3:29 AM 59.0 °F 55.4 °F 88% 30.08 in 1.8 mi Calm Calm - N/A   Overcast
3:53 AM 59.0 °F 55.0 °F 87% 30.08 in 2.5 mi Calm Calm - 0.00 in   Overcast
4:00 AM 59.0 °F 55.4 °F 88% 30.08 in 4.0 mi Calm Calm - N/A   Overcast
4:13 AM 59.0 °F 55.4 °F 88% 30.08 in 6.0 mi Calm Calm - N/A   Overcast
4:53 AM 59.0 °F 55.0 °F 87% 30.08 in 8.0 mi Calm Calm - N/A   Overcast
5:10 AM 59.0 °F 55.4 °F 88% 30.08 in 7.0 mi Calm Calm - N/A   Overcast
5:46 AM 59.0 °F 55.4 °F 88% 30.09 in 5.0 mi Calm Calm - N/A   Overcast
5:53 AM 57.9 °F 55.0 °F 90% 30.09 in 5.0 mi Calm Calm - N/A   Overcast
6:09 AM 57.2 °F 53.6 °F 88% 30.08 in 3.0 mi Calm Calm - 0.00 in Rain Light Rain
6:21 AM 57.2 °F 55.4 °F 94% 30.09 in 2.0 mi Calm Calm - 0.01 in Rain Light Rain
6:42 AM 57.2 °F 55.4 °F 94% 30.09 in 1.5 mi Calm Calm - 0.01 in   Overcast
6:53 AM 57.9 °F 55.0 °F 90% 30.09 in 1.5 mi Calm Calm - 0.01 in   Overcast
7:10 AM 57.2 °F 55.4 °F 94% 30.09 in 1.2 mi Calm Calm - N/A   Overcast
7:18 AM 57.2 °F 55.4 °F 94% 30.09 in 2.0 mi Calm Calm - N/A   Overcast
7:32 AM 59.0 °F 55.4 °F 88% 30.10 in 4.0 mi Calm Calm - N/A   Overcast
7:53 AM 59.0 °F 55.0 °F 87% 30.10 in 3.0 mi Calm Calm - N/A   Overcast
8:12 AM 59.0 °F 55.4 °F 88% 30.10 in 2.5 mi Calm Calm - N/A   Overcast
8:31 AM 59.0 °F 55.4 °F 88% 30.10 in 1.8 mi South 4.6 mph - N/A   Overcast
8:43 AM 59.0 °F 55.4 °F 88% 30.10 in 1.5 mi SSW 3.5 mph - N/A   Overcast
8:53 AM 59.0 °F 55.0 °F 87% 30.10 in 1.5 mi SSW 4.6 mph - N/A   Overcast
9:42 AM 57.2 °F 55.4 °F 94% 30.10 in 1.0 mi SSW 5.8 mph - 0.01 in   Overcast
9:53 AM 59.0 °F 55.0 °F 87% 30.11 in 1.5 mi SSW 5.8 mph - 0.01 in Rain Light Rain
10:09 AM 59.0 °F 55.4 °F 88% 30.11 in 1.0 mi SSW 5.8 mph - 0.00 in   Overcast
10:22 AM 59.0 °F 55.4 °F 88% 30.11 in 2.0 mi SW 4.6 mph - 0.00 in   Overcast
10:35 AM 59.0 °F 55.4 °F 88% 30.11 in 1.2 mi SSW 4.6 mph - 0.00 in Rain Light Rain
10:53 AM 59.0 °F 55.0 °F 87% 30.12 in 1.5 mi SW 4.6 mph - 0.00 in   Overcast
11:16 AM 59.0 °F 55.4 °F 88% 30.12 in 2.5 mi WSW 5.8 mph - N/A   Overcast
11:23 AM 59.0 °F 55.4 °F 88% 30.12 in 1.2 mi SW 3.5 mph - N/A   Overcast
11:38 AM 59.0 °F 55.4 °F 88% 30.12 in 1.5 mi WSW 3.5 mph - N/A   Overcast
11:53 AM 60.1 °F 55.9 °F 86% 30.12 in 1.8 mi WSW 4.6 mph - N/A   Overcast
12:23 PM 59.0 °F 55.4 °F 88% 30.13 in 2.0 mi SW 5.8 mph - N/A   Overcast
12:53 PM 60.1 °F 55.9 °F 86% 30.13 in 3.0 mi Calm Calm - N/A   Overcast
1:53 PM 61.0 °F 55.0 °F 81% 30.14 in 4.0 mi SW 4.6 mph - 0.00 in   Haze
2:02 PM 60.8 °F 55.4 °F 82% 30.14 in 4.0 mi SW 4.6 mph - 0.00 in Rain Light Rain
2:16 PM 60.8 °F 55.4 °F 82% 30.14 in 8.0 mi SW 4.6 mph - 0.00 in   Overcast
2:53 PM 61.0 °F 55.0 °F 81% 30.14 in 6.0 mi West 3.5 mph - 0.00 in   Haze
3:09 PM 60.8 °F 55.4 °F 82% 30.14 in 8.0 mi West 4.6 mph - N/A   Overcast
3:30 PM 64.4 °F 55.4 °F 73% 30.14 in 9.0 mi WSW 6.9 mph - N/A   Overcast
3:53 PM 64.9 °F 55.9 °F 73% 30.13 in 9.0 mi West 6.9 mph - N/A   Overcast
4:53 PM 64.9 °F 55.0 °F 70% 30.13 in 9.0 mi WSW 6.9 mph - N/A   Overcast
5:37 PM 62.6 °F 53.6 °F 72% 30.12 in 9.0 mi West 9.2 mph - N/A   Scattered Clouds
5:53 PM 63.0 °F 54.0 °F 72% 30.13 in 9.0 mi West 6.9 mph - N/A   Clear
6:32 PM 62.6 °F 53.6 °F 72% 30.13 in 9.0 mi WSW 6.9 mph - N/A   Scattered Clouds
6:45 PM 62.6 °F 53.6 °F 72% 30.13 in 9.0 mi West 6.9 mph - N/A   Mostly Cloudy
6:53 PM 62.1 °F 54.0 °F 75% 30.13 in 9.0 mi West 4.6 mph - N/A   Mostly Cloudy
7:15 PM 62.6 °F 53.6 °F 72% 30.12 in 9.0 mi WSW 5.8 mph - N/A   Scattered Clouds
7:53 PM 61.0 °F 54.0 °F 78% 30.13 in 8.0 mi West 4.6 mph - N/A   Scattered Clouds
8:01 PM 60.8 °F 53.6 °F 77% 30.13 in 8.0 mi West 4.6 mph - N/A   Mostly Cloudy
8:53 PM 60.1 °F 54.0 °F 80% 30.14 in 8.0 mi Calm Calm - N/A   Overcast
9:53 PM 59.0 °F 55.0 °F 87% 30.14 in 9.0 mi Calm Calm - N/A   Overcast
10:53 PM 59.0 °F 55.0 °F 87% 30.15 in 8.0 mi Calm Calm - N/A   Overcast
11:53 PM 59.0 °F 55.0 °F 87% 30.14 in 7.0 mi Calm Calm - N/A   Overcast